Effective Sunday, March 17, 2024, the National Weather Service National Data Buoy Center will discontinue its Dial-A-Buoy Interactive Voice Response system. For more information, see Service Change Notice 24-06 (PDF).

Station OWMO1 - Old Woman Creek Western Reserve Image indicating link to RSS feed of recent meteorological observations for station OWMO1


Conditions at OWMO1 as of
1500 GMT on 02/24/2024:
     

Click on the graph icon in the table below to see a time series plot of the last five days of that observation.

5-day plot - Wind Direction Wind Direction (WDIR):NNE ( 30 deg true )
5-day plot - Wind Speed Wind Speed (WSPD): 11.1 kts
5-day plot - Air Temperature Air Temperature (ATMP): 23.0 °F
5-day plot - Dew Point Dew Point (DEWP): 12.2 °F
5-day plot - Wind Chill Wind Chill (CHILL): 11.1 °F
5-day plot - Wind Speed at 10 Meters Wind Speed at 10 meters (WSPD10M): 11.7 kts
5-day plot - Wind Speed at 20 Meters Wind Speed at 20 meters (WSPD20M): 11.7 kts
Previous observations
TIME
(GMT)
5-day plot - Wind Direction
WDIR
 
5-day plot - Wind Speed
WSPD
kts
5-day plot - Wind Gust
GST
kts
5-day plot - Wave Height
WVHT
ft
5-day plot - Dominant Wave Period
DPD
sec
5-day plot - Average Wave Period
APD
sec
5-day plot - Mean Wave Direction
MWD
 
5-day plot - Atmospheric Pressure
PRES
in
5-day plot - Pressure Tendency
PTDY
in
5-day plot - Air Temperature
ATMP
°F
5-day plot - Water Temperature
WTMP
°F
5-day plot - Dew Point
DEWP
°F
5-day plot - Salinity
SAL
psu
5-day plot - Visibility
VIS
nmi
5-day plot - Tide (above MLLW)
TIDE
ft
2024-02-24 1445NNE 11.1------- 22.5- 11.3---
2024-02-24 1430NNE 12.0------- 21.7- 10.8---
2024-02-24 1415NNE 11.1------- 22.3- 11.5---
2024-02-24 1400NNE 12.0------- 22.6- 12.6---
2024-02-24 1345NNE 11.1------- 21.7- 12.0---
2024-02-24 1330NNE 11.1------- 21.6- 12.2---
2024-02-24 1315NNE 11.1------- 21.6- 11.8---
2024-02-24 1300NNE 9.9------- 21.7- 11.8---
2024-02-24 1245NNE 11.1------- 21.7- 11.1---
2024-02-24 1230NNE 8.9------- 21.4- 10.8---
2024-02-24 1215NNE 9.9------- 21.6- 11.8---
2024-02-24 1200NNE 11.1------- 21.7- 12.7---
2024-02-24 1145NNE 11.1------- 21.7- 12.7---
2024-02-24 1130NNE 9.9------- 21.6- 14.5---
2024-02-24 1115NNE 7.0------- 21.0- 16.9---
2024-02-24 1100NNE 8.9------- 21.4- 17.1---
2024-02-24 1045NNE 12.0------- 21.6- 16.3---
2024-02-24 1030NNE 12.0------- 21.9- 16.3---
2024-02-24 1015NNE 11.1------- 22.3- 15.8---
2024-02-24 1000NNE 9.9------- 22.3- 16.7---
2024-02-24 0945NNE 11.1------- 22.5- 17.4---
2024-02-24 0930NNE 8.9------- 22.5- 18.1---
2024-02-24 0915NNE 9.9------- 23.0- 17.4---
2024-02-24 0900NNE 8.0------- 23.7- 17.8---
2024-02-24 0845NNE 11.1------- 23.9- 16.9---
2024-02-24 0830NNE 12.0------- 24.4- 17.4---
2024-02-24 0815 NE 11.1------- 25.0- 17.6---
2024-02-24 0800 NE 9.9------- 25.3- 18.1---
2024-02-24 0745 NE 8.9------- 25.7- 19.6---
2024-02-24 0730 NE 8.9------- 25.7- 19.8---
2024-02-24 0715 NE 9.9------- 26.1- 20.1---
2024-02-24 0700 NE 9.9------- 26.4- 20.1---
2024-02-24 0645 NE 9.9------- 26.6- 20.7---
2024-02-24 0630 NE 8.9------- 27.0- 21.0---
2024-02-24 0615 NE 8.9------- 27.3- 21.4---
2024-02-24 0600 NE 11.1------- 27.9- 21.9---
2024-02-24 0545 NE 8.9------- 28.2- 21.9---
2024-02-24 0530NNE 8.0------- 28.2- 21.9---
2024-02-24 0515NNE 8.9------- 28.2- 21.6---
2024-02-24 0500NNE 8.0------- 28.4- 21.7---
2024-02-24 0445NNE 7.0------- 28.6- 21.4---
2024-02-24 0430NNE 8.0------- 28.8- 21.2---
2024-02-24 0415NNE 8.0------- 29.1- 21.9---
2024-02-24 0400NNE 8.0------- 29.7- 23.0---
2024-02-24 0345 NE 8.9------- 30.2- 23.9---
2024-02-24 0330 NE 8.0------- 30.4- 24.4---
2024-02-24 0315 NE 8.9------- 31.1- 25.0---
2024-02-24 0300 NE 6.0------- 31.3- 26.1---
2024-02-24 0245 NE 5.1------- 31.3- 26.1---
2024-02-24 0230 NE 6.0------- 31.3- 26.1---
2024-02-24 0215 NE 7.0------- 31.6- 26.2---
2024-02-24 0200 NE 8.0------- 32.5- 27.3---
2024-02-24 0145 NE 6.0------- 32.9- 27.5---
2024-02-24 0130NNE 8.0------- 33.3- 27.1---
2024-02-24 0115 NE 8.0------- 33.6- 27.1---
2024-02-24 0100 NE 8.0------- 34.2- 27.7---
2024-02-24 0045 NE 8.9------- 34.5- 28.0---
2024-02-24 0030 NE 9.9------- 35.1- 28.0---
2024-02-24 0015 NE 8.9------- 36.0- 27.1---
2024-02-24 0000 NE 8.0------- 36.5- 27.3---
2024-02-23 2345 NE 8.9------- 37.2- 28.4---
2024-02-23 2330 NE 8.9------- 38.1- 29.3---
2024-02-23 2315 NE 8.0------- 39.6- 30.2---
2024-02-23 2300 NE 7.0------- 40.5- 30.4---
2024-02-23 2245 NE 7.0------- 41.2- 31.1---
2024-02-23 2230 NE 8.0------- 41.7- 30.9---
2024-02-23 2215 NE 7.0------- 43.0- 31.3---
2024-02-23 2200 NE 7.0------- 43.7- 31.3---
2024-02-23 2145NNE 7.0------- 43.5- 31.5---
2024-02-23 2130NNE 8.9------- 43.9- 31.5---
2024-02-23 2115NNE 8.9------- 44.6- 32.5---
2024-02-23 2100 N 8.0------- 45.0- 33.3---
2024-02-23 2045 N 8.9------- 45.1- 33.1---
2024-02-23 2030 N 6.0------- 45.1- 32.5---
2024-02-23 2015 N 8.9------- 44.1- 31.6---
2024-02-23 2000 N 8.9------- 45.0- 32.4---
2024-02-23 1945 N 8.0------- 44.8- 33.1---
2024-02-23 1930 N 8.0------- 44.6- 34.3---
2024-02-23 1915 N 7.0------- 43.9- 34.2---
2024-02-23 1900 N 8.9------- 44.4- 34.9---
2024-02-23 1845NNW 6.0------- 48.0- 36.5---
2024-02-23 1830WNW 6.0------- 48.4- 36.9---
2024-02-23 1815WNW 6.0------- 47.8- 36.0---
2024-02-23 1800 NW 6.0------- 48.0- 36.1---
2024-02-23 1745WNW 6.0------- 46.9- 35.4---
2024-02-23 1730 W 6.0------- 46.6- 35.6---
2024-02-23 1715 W 5.1------- 46.9- 36.0---
2024-02-23 1700WNW 6.0------- 47.5- 37.2---
2024-02-23 1645 W 6.0------- 46.4- 36.5---
2024-02-23 1630 W 7.0------- 46.4- 36.9---
2024-02-23 1615 W 8.0------- 46.6- 36.0---
2024-02-23 1600 W 7.0------- 47.1- 38.3---